Effective Sunday, March 17, 2024, the National Weather Service National Data Buoy Center will discontinue its Dial-A-Buoy Interactive Voice Response system. For more information, see Service Change Notice 24-06 (PDF).

Station CSXA2 - Cape Spencer WX Image indicating link to RSS feed of recent meteorological observations for station CSXA2


Conditions at CSXA2 as of
(7:10 pm AKST on 02/24/2024)
0410 GMT on 02/25/2024:
     

Click on the graph icon in the table below to see a time series plot of the last five days of that observation.

5-day plot - Wind Direction Wind Direction (WDIR): E ( 100 deg true )
5-day plot - Wind Speed Wind Speed (WSPD): 17 kts
5-day plot - Wind Gust Wind Gust (GST): 28 kts
5-day plot - Atmospheric Pressure Atmospheric Pressure (PRES):29.46 in
5-day plot - Air Temperature Air Temperature (ATMP): 32.9 °F
5-day plot - Dew Point Dew Point (DEWP): 26.1 °F
5-day plot - Wind Chill Wind Chill (CHILL): 21.2 °F
5-day plot - Wind Speed at 10 Meters Wind Speed at 10 meters (WSPD10M): 16 kts
5-day plot - Wind Speed at 20 Meters Wind Speed at 20 meters (WSPD20M): 16 kts
5-day plot -  Wind Speed, Wind Gust and Atmospheric Pressure Combined plot of Wind Speed, Gust, and Air Pressure
Previous observations
TIME
(AKST)
5-day plot - Wind Direction
WDIR
 
5-day plot - Wind Speed
WSPD
kts
5-day plot - Wind Gust
GST
kts
5-day plot - Wave Height
WVHT
ft
5-day plot - Dominant Wave Period
DPD
sec
5-day plot - Average Wave Period
APD
sec
5-day plot - Mean Wave Direction
MWD
 
5-day plot - Atmospheric Pressure
PRES
in
5-day plot - Pressure Tendency
PTDY
in
5-day plot - Air Temperature
ATMP
°F
5-day plot - Water Temperature
WTMP
°F
5-day plot - Dew Point
DEWP
°F
5-day plot - Salinity
SAL
psu
5-day plot - Visibility
VIS
nmi
5-day plot - Tide (above MLLW)
TIDE
ft
2024-02-24 06:56 pm E 18 28----29.47- 32.9- 26.4---
2024-02-24 06:44 pm E 19 27----29.48- 32.9- 26.2---
2024-02-24 06:33 pm E 19 26----29.48- 32.7- 26.1---
2024-02-24 06:23 pm E 18 25----29.49- 32.9- 26.4---
2024-02-24 06:13 pm E 17 25----29.49- 33.1- 26.6---
2024-02-24 05:53 pm E 16 28----29.51- 33.4- 27.7---
2024-02-24 05:43 pm E 17 27----29.51- 33.4- 27.3---
2024-02-24 05:33 pm E 18 26----29.52- 33.3- 26.8---
2024-02-24 05:23 pm E 18 24----29.52- 33.4- 27.0---
2024-02-24 05:13 pm E 16 24----29.53- 33.8- 27.7---
2024-02-24 05:03 pm E 16 24----29.54- 34.0- 27.9---
2024-02-24 04:53 pmESE 13 23----29.54- 34.3- 28.9---
2024-02-24 04:43 pmESE 15 26----29.55- 34.3- 28.6---
2024-02-24 04:33 pm E 15 23----29.56- 34.2- 28.4---
2024-02-24 04:23 pmESE 14 22----29.56- 34.2- 28.6---
2024-02-24 04:13 pmESE 15 25----29.57- 34.2- 28.4---
2024-02-24 04:03 pmESE 13 21----29.57- 34.3- 28.6---
2024-02-24 03:53 pmESE 11 21----29.57- 34.3- 28.6---
2024-02-24 03:43 pmESE 13 21----29.58- 34.3- 28.0---
2024-02-24 03:33 pm E 15 21----29.59- 34.2- 27.5---
2024-02-24 03:24 pm E 13 20----29.59- 34.3- 28.2---
2024-02-24 03:13 pm E 14 21----29.60- 34.2- 28.0---
2024-02-24 02:54 pm E 16 21----29.61- 34.0- 27.1---
2024-02-24 02:44 pm E 15 20----29.62- 33.8- 27.1---
2024-02-24 02:34 pm E 16 20----29.62- 33.6- 27.0---
2024-02-24 02:24 pm E 16 21----29.63- 33.8- 27.0---
2024-02-24 02:16 pm E 16 21----29.63- 33.8- 27.0---
2024-02-24 02:07 pm E 15 20----29.63- 33.8- 27.0---
2024-02-24 01:54 pm E 13 20----29.64- 34.2- 27.7---
2024-02-24 01:45 pm E 14 20----29.65- 34.0- 27.5---
2024-02-24 01:36 pm E 14 21----29.65- 33.8- 27.3---
2024-02-24 01:26 pm E 12 20----29.66- 34.2- 27.9---
2024-02-24 01:17 pm E 14 18----29.66- 33.8- 27.5---
2024-02-24 01:07 pm E 13 21----29.67- 33.8- 27.7---
2024-02-24 12:55 pm E 14 20----29.67- 33.6- 27.3---
2024-02-24 12:43 pm E 12 19----29.67- 34.2- 28.2---
2024-02-24 12:33 pm E 11 18----29.68- 34.0- 27.9---
2024-02-24 12:23 pm E 13 18----29.68- 33.6- 27.3---
2024-02-24 12:13 pm E 12 17----29.68- 33.4- 27.3---
2024-02-24 12:03 pm E 13 20----29.69- 33.4- 27.1---
2024-02-24 11:53 am E 12 18----29.69- 33.4- 27.3---
2024-02-24 11:43 am E 12 16----29.70- 33.4- 27.5---
2024-02-24 11:33 am E 10 16----29.70- 33.4- 27.7---
2024-02-24 11:23 am E 10 15----29.70- 33.4- 27.5---
2024-02-24 11:14 am E 13 17----29.70- 33.1- 27.0---
2024-02-24 11:04 am E 11 17----29.70- 33.3- 27.5---
2024-02-24 10:54 am E 13 18----29.70- 33.1- 27.1---
2024-02-24 10:34 am E 14 18----29.71- 32.7- 27.1---
2024-02-24 10:25 am E 14 18----29.71- 32.7- 27.3---
2024-02-24 10:15 am E 14 18----29.71- 32.7- 27.7---
2024-02-24 10:05 am E 14 20----29.71- 32.7- 27.9---
2024-02-24 09:55 am E 14 18----29.72- 32.7- 27.9---
2024-02-24 09:45 am E 12 17----29.72- 32.7- 27.7---
2024-02-24 09:35 am E 11 17----29.72- 32.7- 27.5---
2024-02-24 09:26 am E 11 16----29.72- 32.5- 27.7---
2024-02-24 09:16 am E 12 17----29.72- 32.5- 27.7---
2024-02-24 09:07 am E 11 16----29.73- 32.5- 27.7---
2024-02-24 08:57 am E 11 14----29.73- 32.5- 27.9---
2024-02-24 08:47 am E 10 13----29.74- 32.5- 27.7---
2024-02-24 08:37 am E 9 13----29.74- 32.5- 27.5---
2024-02-24 08:27 am E 8 11----29.74- 32.5- 27.7---
2024-02-24 08:19 am E 7 12----29.75- 32.5- 27.5---
2024-02-24 08:10 am E 7 12----29.75- 32.5- 27.5---
2024-02-24 07:58 am E 7 12----29.75- 32.5- 27.7---
2024-02-24 07:49 am E 8 11----29.75- 32.5- 27.7---
2024-02-24 07:41 am E 8 11----29.75- 32.5- 27.7---
2024-02-24 07:29 amENE 8 11----29.75- 32.7- 27.7---
2024-02-24 07:20 amENE 8 11----29.75- 32.7- 27.7---
2024-02-24 07:08 am E 7 10----29.75- 32.7- 27.5---
2024-02-24 06:55 am E 7 12----29.75- 32.7- 27.0---
2024-02-24 06:44 am E 7 9----29.76- 32.9- 26.8---
2024-02-24 06:33 amENE 6 9----29.75- 32.7- 27.1---
2024-02-24 06:23 am E 7 11----29.75- 32.9- 27.1---
2024-02-24 06:13 am E 8 11----29.76- 33.1- 27.1---
2024-02-24 06:03 am E 8 10----29.76- 33.1- 27.3---
2024-02-24 05:53 am E 8 11----29.76- 33.1- 27.5---
2024-02-24 05:43 am E 7 10----29.76- 33.1- 27.5---
2024-02-24 05:33 am E 8 11----29.76- 33.1- 27.3---
2024-02-24 05:23 am E 8 10----29.76- 33.1- 27.5---
2024-02-24 05:13 am E 7 10----29.76- 33.3- 28.0---
2024-02-24 05:03 am E 7 9----29.76- 33.3- 28.2---
2024-02-24 04:53 am E 7 9----29.76- 33.1- 28.2---
2024-02-24 04:43 am E 6 8----29.77- 33.1- 28.0---
2024-02-24 04:33 amENE 4 6----29.77- 32.7- 27.7---
2024-02-24 04:23 amENE 3 5----29.78- 32.9- 28.0---
2024-02-24 04:13 amENE 3 5----29.78- 32.9- 28.2---
2024-02-24 04:03 amENE 3 4----29.78- 32.9- 28.0---
2024-02-24 03:53 amENE 3 4----29.78- 32.9- 28.6---
2024-02-24 03:43 am E 4 7----29.78- 33.3- 28.9---
2024-02-24 03:33 am E 4 7----29.78- 33.4- 29.3---
2024-02-24 03:23 am E 3 5----29.78- 34.0- 29.3---
2024-02-24 03:13 am E 4 7----29.78- 34.2- 29.1---
2024-02-24 03:03 amESE 4 8----29.78- 34.0- 29.3---
2024-02-24 02:53 amESE 4 7----29.78- 34.3- 30.2---
2024-02-24 02:43 am E 2 4----29.78- 34.9- 30.4---
2024-02-24 02:33 amNNE 2 4----29.78- 35.1- 30.2---
2024-02-24 02:24 am N 2 4----29.79- 35.1- 30.6---
2024-02-24 02:15 am N 3 6----29.79- 35.2- 30.6---
2024-02-24 02:06 amNNW 3 5----29.79- 35.4- 31.1---
2024-02-24 01:55 amNNW 5 8----29.79- 35.6- 31.1---
2024-02-24 01:45 amNNW 5 7----29.79- 35.6- 30.9---
2024-02-24 01:35 am N 6 9----29.79- 35.8- 31.1---
2024-02-24 01:26 amNNW 7 11----29.79- 35.6- 31.1---
2024-02-24 01:17 amNNW 7 11----29.79- 35.8- 31.3---
2024-02-24 01:07 amNNW 8 11----29.79- 35.8- 31.5---
2024-02-24 12:55 amNNW 9 14----29.79- 35.8- 31.3---
2024-02-24 12:44 am NW 11 14----29.79- 36.0- 31.3---
2024-02-24 12:33 amNNW 11 13----29.79- 36.0- 31.1---
2024-02-24 12:23 amNNW 11 15----29.79- 36.1- 31.5---
2024-02-24 12:14 amNNW 11 15----29.79- 36.1- 31.5---
2024-02-24 12:04 amNNW 12 18----29.78- 36.3- 31.3---
2024-02-23 11:53 pmNNW 12 15----29.79- 36.3- 31.5---
2024-02-23 11:43 pmNNW 13 19----29.78- 36.5- 31.6---
2024-02-23 11:34 pmNNW 14 19----29.78- 36.7- 31.5---
2024-02-23 11:24 pm NW 16 21----29.78- 36.7- 31.3---
2024-02-23 11:14 pmNNW 15 19----29.78- 36.5- 32.0---
2024-02-23 11:04 pmNNW 16 19----29.79- 36.5- 32.5---
2024-02-23 10:54 pmNNW 15 20----29.79- 36.5- 32.9---
2024-02-23 10:44 pm NW 12 16----29.80- 36.3- 32.9---
2024-02-23 10:34 pm NW 12 18----29.80- 36.3- 33.1---
2024-02-23 10:25 pmNNW 13 18----29.80- 36.1- 32.7---
2024-02-23 10:15 pm NW 14 18----29.80- 36.3- 32.9---
2024-02-23 10:05 pm NW 14 17----29.79- 36.5- 32.7---
2024-02-23 09:55 pm NW 14 18----29.80- 36.9- 32.5---
2024-02-23 09:45 pm NW 15 18----29.80- 37.0- 32.7---
2024-02-23 09:36 pm NW 14 17----29.80- 37.2- 32.9---
2024-02-23 09:27 pm NW 15 23----29.80- 37.4- 31.8---
2024-02-23 09:17 pm NW 14 20----29.81- 37.4- 31.8---
2024-02-23 09:07 pmWNW 13 20----29.81- 37.2- 31.8---
2024-02-23 08:57 pm NW 13 16----29.81- 36.9- 32.0---
2024-02-23 08:47 pm NW 13 17----29.81- 36.9- 31.3---
2024-02-23 08:37 pm NW 14 19----29.81- 37.0- 31.1---
2024-02-23 08:29 pm NW 13 18----29.81- 36.9- 31.6---
2024-02-23 08:20 pm NW 13 18----29.81- 36.9- 31.6---
2024-02-23 08:10 pmWNW 13 19----29.81- 36.9- 31.8---
2024-02-23 07:57 pm NW 14 19----29.81- 36.7- 32.7---
2024-02-23 07:49 pmNNW 16 21----29.80- 36.5- 32.4---
2024-02-23 07:40 pmNNW 16 21----29.80- 36.5- 32.4---
2024-02-23 07:29 pm NW 15 22----29.80- 37.4- 32.7---
2024-02-23 07:20 pm NW 15 22----29.80- 37.4- 32.7---
2024-02-23 07:10 pm NW 15 20----29.80- 37.4- 32.5---
2024-02-23 06:55 pmWNW 13 19----29.80- 37.4- 31.8---